M I D A S
Marine Information and Data Acquisition System
Tripno 857 of the Zeeleeuw from 2005-03-07 07:35:17 to 2005-03-07 18:04:43
Back to CruiseResearch ActivitiesStationsMapUnderway DataData graphs

EquipmentUnitsComments
TimeDGPSUTC
LatitudeDGPSDM.mWGS84
LongitudeDGPSDM.mWGS84
SpeedMeteo Stationm/sRelative wind speed
DirectionMeteo StationdegRelative wind direction
TemperatureMeteo Stationdeg CelciusAir temperature
PressureMeteo StationPaAtmospheric pressure
HumidityMeteo Station%Relative humidity
Missing or incorrect values are displayed as -999
Metereological data collected by the RV Zeeleeuw from 2005-03-07 07:28:23 to 2005-03-07 18:04:00
                                                                                    Next 1000 lines
Time Latitude Longitude Speed Direction Temperature Pressure Humidity
2005-03-07 07:28:33 51°13.595 2°56.1 6.5 217 3.8 102490 92
2005-03-07 07:28:38 51°13.596 2°56.099 6.4 217 3.8 102490 92
2005-03-07 07:28:42 51°13.596 2°56.097 5.9 205 3.8 102490 92
2005-03-07 07:28:48 51°13.597 2°56.093 7.2 215 3.8 102490 92
2005-03-07 07:28:53 51°13.598 2°56.09 7.2 223 3.8 102490 92
2005-03-07 07:28:59 51°13.599 2°56.085 7 204 3.8 102490 92
2005-03-07 07:29:04 51°13.601 2°56.081 6.5 204 3.7 102490 92
2005-03-07 07:29:09 51°13.602 2°56.076 7 211 3.7 102490 92
2005-03-07 07:29:14 51°13.604 2°56.071 6.3 202 3.7 102490 92
2005-03-07 07:29:19 51°13.606 2°56.066 7.5 208 3.7 102490 92
2005-03-07 07:29:24 51°13.608 2°56.06 7.6 218 3.7 102480 92
2005-03-07 07:29:29 51°13.61 2°56.053 8.6 222 3.7 102480 92
2005-03-07 07:29:34 51°13.612 2°56.047 7.2 208 3.7 102480 92
2005-03-07 07:29:39 51°13.614 2°56.039 7.5 211 3.7 102480 92
2005-03-07 07:29:44 51°13.616 2°56.033 7.9 216 3.7 102490 92
2005-03-07 07:29:49 51°13.618 2°56.024 5.3 203 3.7 102490 92
2005-03-07 07:29:54 51°13.621 2°56.016 5.9 206 3.7 102490 92
2005-03-07 07:29:59 51°13.623 2°56.008 6.2 201 3.7 102490 92
2005-03-07 07:30:04 51°13.626 2°55.999 6.1 202 3.7 102480 92
2005-03-07 07:30:09 51°13.629 2°55.99 7.6 202 3.7 102480 92
2005-03-07 07:30:14 51°13.632 2°55.98 7 218 3.7 102490 93
2005-03-07 07:30:19 51°13.635 2°55.971 7.1 205 3.7 102490 93
2005-03-07 07:30:24 51°13.638 2°55.961 8 213 3.8 102490 93
2005-03-07 07:30:29 51°13.641 2°55.95 8.5 200 3.8 102490 93
2005-03-07 07:30:34 51°13.644 2°55.941 7.9 207 3.8 102490 94
2005-03-07 07:30:39 51°13.648 2°55.929 10.3 211 3.8 102490 94
2005-03-07 07:30:44 51°13.651 2°55.918 9.3 215 3.8 102480 93
2005-03-07 07:30:49 51°13.654 2°55.908 7.7 208 3.8 102480 93
2005-03-07 07:30:54 51°13.658 2°55.897 9.6 208 3.7 102490 93
2005-03-07 07:30:59 51°13.661 2°55.885 9.2 211 3.7 102490 93
2005-03-07 07:31:04 51°13.664 2°55.873 8.7 205 3.7 102490 93
2005-03-07 07:31:09 51°13.668 2°55.862 8.9 204 3.7 102490 93
2005-03-07 07:31:14 51°13.671 2°55.852 8.4 210 3.7 102490 93
2005-03-07 07:31:19 51°13.674 2°55.839 9.2 208 3.7 102490 93
2005-03-07 07:31:24 51°13.677 2°55.828 10 214 3.7 102490 93
2005-03-07 07:31:29 51°13.68 2°55.818 10.6 218 3.7 102490 93
2005-03-07 07:31:34 51°13.682 2°55.809 8.7 210 3.7 102490 93
2005-03-07 07:31:39 51°13.684 2°55.799 8.5 214 3.7 102490 93
2005-03-07 07:31:44 51°13.686 2°55.79 11.5 222 3.7 102490 93
2005-03-07 07:31:48 51°13.688 2°55.782 11.6 222 3.7 102490 93
2005-03-07 07:31:54 51°13.69 2°55.773 9.8 214 3.7 102500 93
2005-03-07 07:31:58 51°13.691 2°55.767 9.1 230 3.7 102500 93
2005-03-07 07:32:04 51°13.692 2°55.76 8.3 226 3.7 102490 93
2005-03-07 07:32:09 51°13.693 2°55.755 10 234 3.7 102490 93
2005-03-07 07:32:14 51°13.694 2°55.753 8.5 239 3.7 102490 94
2005-03-07 07:32:19 51°13.694 2°55.752 6.8 236 3.7 102490 94
2005-03-07 07:32:24 51°13.695 2°55.752 6.5 236 3.7 102490 94
2005-03-07 07:32:29 51°13.695 2°55.753 4.5 262 3.7 102490 94
2005-03-07 07:32:34 51°13.695 2°55.756 5.5 261 3.7 102490 94
2005-03-07 07:32:39 51°13.696 2°55.759 8.3 272 3.7 102490 94
2005-03-07 07:32:44 51°13.697 2°55.762 7.6 278 3.7 102480 94
2005-03-07 07:32:48 51°13.698 2°55.766 9.5 284 3.7 102480 94
2005-03-07 07:32:52 51°13.7 2°55.769 9.2 291 3.7 102480 94
2005-03-07 07:32:59 51°13.703 2°55.775 8.7 294 3.7 102480 94
2005-03-07 07:33:04 51°13.706 2°55.779 6.9 300 3.7 102480 94
2005-03-07 07:33:09 51°13.709 2°55.781 7.1 312 3.7 102480 94
2005-03-07 07:33:14 51°13.711 2°55.783 7.9 310 3.7 102460 94
2005-03-07 07:33:19 51°13.713 2°55.785 7.4 231 3.7 102460 94
2005-03-07 07:33:24 51°13.713 2°55.785 7.4 312 3.7 102460 94
2005-03-07 07:33:29 51°13.713 2°55.785 6.7 313 3.7 102460 94
2005-03-07 07:33:34 51°13.712 2°55.784 6.4 312 3.7 102470 94
2005-03-07 07:33:39 51°13.71 2°55.784 7.2 307 3.7 102470 94
2005-03-07 07:33:44 51°13.707 2°55.783 7.5 295 3.7 102450 94
2005-03-07 07:33:49 51°13.705 2°55.782 6.1 307 3.7 102450 94
2005-03-07 07:33:54 51°13.703 2°55.781 6.2 302 3.7 102450 94
2005-03-07 07:33:59 51°13.702 2°55.78 6.4 300 3.7 102450 94
2005-03-07 07:34:04 51°13.702 2°55.78 5.9 230 3.7 102450 94
2005-03-07 07:34:09 51°13.703 2°55.78 6.2 308 3.7 102450 94
2005-03-07 07:34:14 51°13.705 2°55.78 8 316 3.7 102470 94
2005-03-07 07:34:19 51°13.708 2°55.78 8.3 337 3.7 102470 94
2005-03-07 07:34:24 51°13.712 2°55.779 7.9 349 3.7 102470 94
2005-03-07 07:34:29 51°13.717 2°55.777 9 358 3.7 102470 94
2005-03-07 07:34:34 51°13.722 2°55.772 8.8 1 3.7 102460 94
2005-03-07 07:34:39 51°13.726 2°55.768 8.3 4 3.7 102460 94
2005-03-07 07:34:44 51°13.731 2°55.761 9.1 19 3.7 102450 94
2005-03-07 07:34:48 51°13.734 2°55.755 8.9 13 3.7 102450 94
2005-03-07 07:34:54 51°13.74 2°55.747 9.5 13 3.7 102450 94
2005-03-07 07:34:58 51°13.744 2°55.74 9.3 19 3.7 102450 94
2005-03-07 07:35:04 51°13.75 2°55.73 9 17 3.7 102470 94
2005-03-07 07:35:08 51°13.755 2°55.722 10.7 2 3.7 102470 94
2005-03-07 07:35:12 51°13.759 2°55.715 10.1 16 3.7 102460 94
2005-03-07 07:35:17 51°13.765 2°55.705 10.9 20 3.7 102460 94
2005-03-07 07:35:23 51°13.772 2°55.693 10.8 9 3.7 102460 94
2005-03-07 07:35:28 51°13.779 2°55.683 10.9 12 3.7 102460 94
2005-03-07 07:35:32 51°13.785 2°55.675 10.6 14 3.7 102470 94
2005-03-07 07:35:37 51°13.793 2°55.665 11.4 12 3.7 102470 94
2005-03-07 07:35:44 51°13.803 2°55.652 11.6 8 3.7 102460 94
2005-03-07 07:35:49 51°13.812 2°55.643 9.9 360 3.7 102460 94
2005-03-07 07:35:53 51°13.821 2°55.635 11.3 1 3.7 102460 94
2005-03-07 07:35:58 51°13.829 2°55.626 11.3 12 3.7 102460 94
2005-03-07 07:36:03 51°13.84 2°55.617 12.9 3 3.7 102450 94
2005-03-07 07:36:08 51°13.851 2°55.609 9.9 9 3.7 102450 94
2005-03-07 07:36:13 51°13.861 2°55.6 11.5 2 3.7 102460 94
2005-03-07 07:36:18 51°13.872 2°55.593 11.4 359 3.7 102460 94
2005-03-07 07:36:23 51°13.883 2°55.585 9.7 4 3.7 102460 94
2005-03-07 07:36:29 51°13.896 2°55.576 10.3 1 3.7 102460 94
2005-03-07 07:36:32 51°13.903 2°55.571 9.8 350 3.7 102460 94
2005-03-07 07:36:38 51°13.915 2°55.563 12.1 354 3.7 102460 94
2005-03-07 07:36:44 51°13.929 2°55.554 11.7 2 3.7 102460 94
2005-03-07 07:36:48 51°13.939 2°55.548 12.4 355 3.7 102460 94
2005-03-07 07:36:54 51°13.952 2°55.539 13.4 1 3.7 102460 94
2005-03-07 07:36:58 51°13.962 2°55.532 12.4 360 3.7 102460 94
2005-03-07 07:37:04 51°13.975 2°55.524 11.5 358 3.7 102460 94
2005-03-07 07:37:08 51°13.985 2°55.517 12 356 3.7 102460 94
2005-03-07 07:37:14 51°13.998 2°55.509 11.2 -999 3.7 102460 94
2005-03-07 07:37:19 51°14.009 2°55.501 11 354 3.7 102460 94
2005-03-07 07:37:23 51°14.018 2°55.494 11.1 359 3.8 102450 94
2005-03-07 07:37:29 51°14.03 2°55.486 11.7 357 3.8 102450 94
2005-03-07 07:37:33 51°14.039 2°55.48 12.9 356 3.8 102460 94
2005-03-07 07:37:38 51°14.049 2°55.473 12.2 1 3.8 102460 94
2005-03-07 07:37:44 51°14.06 2°55.465 10.9 357 3.8 102460 94
2005-03-07 07:37:48 51°14.069 2°55.459 11 356 3.8 102460 94
2005-03-07 07:37:52 51°14.077 2°55.453 12.2 353 3.7 102460 94
2005-03-07 07:37:58 51°14.088 2°55.446 12 355 3.7 102460 94
2005-03-07 07:38:04 51°14.1 2°55.438 12.6 353 3.8 102460 94
2005-03-07 07:38:08 51°14.109 2°55.431 12.5 355 3.8 102460 94
2005-03-07 07:38:12 51°14.118 2°55.425 12.3 357 3.8 102460 94
2005-03-07 07:38:19 51°14.131 2°55.415 12.1 358 3.8 102460 94
2005-03-07 07:38:24 51°14.142 2°55.406 12.1 1 3.8 102480 94
2005-03-07 07:38:28 51°14.151 2°55.398 12.6 -999 3.8 102480 94
2005-03-07 07:38:33 51°14.162 2°55.388 13.4 1 3.8 102450 94
2005-03-07 07:38:39 51°14.173 2°55.377 13.3 6 3.8 102450 94
2005-03-07 07:38:44 51°14.184 2°55.366 12.6 6 3.8 102450 94
2005-03-07 07:38:49 51°14.194 2°55.355 12.6 5 3.8 102450 94
2005-03-07 07:38:53 51°14.203 2°55.344 11.8 8 3.8 102460 94
2005-03-07 07:38:58 51°14.212 2°55.333 13.1 8 3.8 102460 94
2005-03-07 07:39:04 51°14.224 2°55.317 12.1 9 3.8 102460 94
2005-03-07 07:39:08 51°14.232 2°55.305 12.3 13 3.8 102460 94
2005-03-07 07:39:13 51°14.242 2°55.29 12.1 10 3.8 102460 94
2005-03-07 07:39:18 51°14.25 2°55.277 11.9 12 3.8 102460 94
2005-03-07 07:39:23 51°14.26 2°55.26 12.1 16 3.8 102460 94
2005-03-07 07:39:28 51°14.269 2°55.245 13.8 15 3.8 102460 94
2005-03-07 07:39:34 51°14.278 2°55.228 13.6 17 3.8 102460 94
2005-03-07 07:39:38 51°14.285 2°55.215 13.6 17 3.8 102460 94
2005-03-07 07:39:44 51°14.295 2°55.196 12.8 16 3.8 102460 94
2005-03-07 07:39:48 51°14.302 2°55.181 13.7 15 3.8 102460 94
2005-03-07 07:39:53 51°14.311 2°55.164 12.8 18 3.8 102450 94
2005-03-07 07:39:58 51°14.317 2°55.149 13.8 18 3.8 102450 94
2005-03-07 07:40:04 51°14.327 2°55.129 12.5 18 3.8 102450 94
2005-03-07 07:40:08 51°14.334 2°55.113 12.8 23 3.8 102450 94
2005-03-07 07:40:12 51°14.34 2°55.1 12.2 18 3.8 102450 94
2005-03-07 07:40:17 51°14.348 2°55.083 13 16 3.8 102450 94
2005-03-07 07:40:24 51°14.358 2°55.062 12.1 14 3.8 102450 94
2005-03-07 07:40:28 51°14.366 2°55.048 12.6 15 3.8 102450 94
2005-03-07 07:40:32 51°14.374 2°55.036 12.5 14 3.8 102450 94
2005-03-07 07:40:37 51°14.384 2°55.023 12.4 12 3.8 102450 94
2005-03-07 07:40:43 51°14.396 2°55.008 12.4 7 3.8 102470 94
2005-03-07 07:40:48 51°14.406 2°54.996 12.4 5 3.8 102470 94
2005-03-07 07:40:53 51°14.417 2°54.984 12.4 4 3.8 102460 94
2005-03-07 07:40:58 51°14.427 2°54.975 13.1 6 3.8 102460 94
2005-03-07 07:41:02 51°14.436 2°54.967 11.7 8 3.8 102460 94
2005-03-07 07:41:09 51°14.453 2°54.952 12.8 6 3.8 102460 94
2005-03-07 07:41:13 51°14.463 2°54.943 12.2 4 3.8 102460 94
2005-03-07 07:41:18 51°14.474 2°54.933 14.5 8 3.8 102460 94
2005-03-07 07:41:23 51°14.488 2°54.92 13.6 11 3.8 102460 94
2005-03-07 07:41:28 51°14.5 2°54.908 14.6 11 3.8 102460 94
2005-03-07 07:41:32 51°14.511 2°54.898 15 4 3.8 102460 94
2005-03-07 07:41:38 51°14.525 2°54.884 14.9 7 3.8 102460 94
2005-03-07 07:41:43 51°14.539 2°54.87 14.7 10 3.8 102450 94
2005-03-07 07:41:48 51°14.551 2°54.858 15.4 8 3.8 102450 94
2005-03-07 07:41:53 51°14.565 2°54.843 15.8 11 3.8 102450 94
2005-03-07 07:41:58 51°14.577 2°54.831 12.7 7 3.8 102450 94
2005-03-07 07:42:04 51°14.592 2°54.817 12.9 7 3.8 102450 94
2005-03-07 07:42:09 51°14.605 2°54.804 14 8 3.8 102450 94
2005-03-07 07:42:13 51°14.617 2°54.793 13.1 7 3.8 102450 94
2005-03-07 07:42:19 51°14.631 2°54.78 13.9 6 3.8 102450 94
2005-03-07 07:42:24 51°14.645 2°54.768 14.3 10 3.8 102450 94
2005-03-07 07:42:28 51°14.658 2°54.758 14.7 5 3.8 102450 94
2005-03-07 07:42:32 51°14.669 2°54.748 14.4 7 3.8 102460 94
2005-03-07 07:42:38 51°14.684 2°54.735 15 6 3.8 102460 94
2005-03-07 07:42:43 51°14.7 2°54.721 14.6 11 3.8 102450 94
2005-03-07 07:42:48 51°14.715 2°54.708 14.4 9 3.8 102450 94
2005-03-07 07:42:52 51°14.726 2°54.697 15.4 10 3.9 102450 94
2005-03-07 07:42:58 51°14.742 2°54.683 13.9 7 3.9 102450 94
2005-03-07 07:43:04 51°14.76 2°54.667 14.1 6 3.9 102440 94
2005-03-07 07:43:08 51°14.774 2°54.655 14.9 7 3.9 102440 94
2005-03-07 07:43:13 51°14.789 2°54.642 15.7 5 3.9 102450 94
2005-03-07 07:43:18 51°14.802 2°54.63 14.1 10 3.9 102450 94
2005-03-07 07:43:23 51°14.818 2°54.617 15.7 5 3.9 102440 94
2005-03-07 07:43:29 51°14.836 2°54.6 14.9 8 3.9 102440 94
2005-03-07 07:43:34 51°14.852 2°54.587 15 8 3.9 102450 94
2005-03-07 07:43:37 51°14.862 2°54.577 15.7 6 3.9 102450 94
2005-03-07 07:43:43 51°14.881 2°54.559 16.3 11 3.9 102440 94
2005-03-07 07:43:48 51°14.895 2°54.546 15.4 11 3.9 102440 94
2005-03-07 07:43:54 51°14.913 2°54.528 16.1 9 3.8 102440 94
2005-03-07 07:43:58 51°14.927 2°54.516 14.9 13 3.8 102440 94
2005-03-07 07:44:04 51°14.944 2°54.5 15.9 9 3.9 102440 94
2005-03-07 07:44:08 51°14.958 2°54.486 16 11 3.9 102440 94
2005-03-07 07:44:13 51°14.973 2°54.471 15.5 10 3.9 102440 94
2005-03-07 07:44:18 51°14.986 2°54.458 15.3 6 3.9 102440 94
2005-03-07 07:44:23 51°15.003 2°54.441 16.8 8 3.9 102450 94
2005-03-07 07:44:28 51°15.018 2°54.426 15.6 7 3.9 102450 94
2005-03-07 07:44:33 51°15.033 2°54.411 15.7 10 3.9 102440 94
2005-03-07 07:44:39 51°15.05 2°54.394 16.5 9 3.9 102440 94
2005-03-07 07:44:44 51°15.065 2°54.381 14.2 9 3.9 102440 94
2005-03-07 07:44:48 51°15.077 2°54.369 14.9 7 3.9 102440 94
2005-03-07 07:44:53 51°15.094 2°54.354 14.1 9 3.9 102440 94
2005-03-07 07:44:58 51°15.108 2°54.341 15 8 3.9 102440 94
2005-03-07 07:45:04 51°15.126 2°54.324 15.6 13 3.9 102440 94
2005-03-07 07:45:08 51°15.14 2°54.312 14.5 10 3.9 102440 94
2005-03-07 07:45:13 51°15.156 2°54.299 15.7 6 3.9 102440 94
2005-03-07 07:45:18 51°15.17 2°54.286 15.8 8 3.9 102440 94
2005-03-07 07:45:24 51°15.189 2°54.27 16.8 8 3.9 102440 94
2005-03-07 07:45:29 51°15.204 2°54.257 14 8 3.9 102440 94
2005-03-07 07:45:34 51°15.219 2°54.244 14.1 3 3.9 102440 94
2005-03-07 07:45:39 51°15.234 2°54.23 14.8 9 3.9 102440 94
2005-03-07 07:45:43 51°15.248 2°54.218 15.7 9 3.9 102440 94
2005-03-07 07:45:49 51°15.265 2°54.203 15.1 7 3.9 102440 94
2005-03-07 07:45:53 51°15.278 2°54.191 15.2 6 3.9 102440 94
2005-03-07 07:45:58 51°15.293 2°54.178 16.4 6 3.9 102440 94
2005-03-07 07:46:03 51°15.31 2°54.163 16.3 12 3.9 102440 93
2005-03-07 07:46:08 51°15.325 2°54.148 17.5 7 3.9 102440 93
2005-03-07 07:46:12 51°15.336 2°54.139 17.1 7 3.9 102440 94
2005-03-07 07:46:19 51°15.358 2°54.118 15.8 6 3.9 102440 94
2005-03-07 07:46:23 51°15.371 2°54.105 15.4 9 3.9 102430 93
2005-03-07 07:46:28 51°15.387 2°54.09 15.3 5 3.9 102430 93
2005-03-07 07:46:33 51°15.402 2°54.075 15.5 4 3.9 102430 93
2005-03-07 07:46:39 51°15.418 2°54.058 16.3 6 3.9 102430 93
2005-03-07 07:46:44 51°15.434 2°54.043 16.2 9 3.9 102440 94
2005-03-07 07:46:48 51°15.446 2°54.03 15.5 8 3.9 102440 94
2005-03-07 07:46:53 51°15.46 2°54.016 15.5 3 3.9 102440 93
2005-03-07 07:46:58 51°15.478 2°53.998 15.8 8 3.9 102440 93
2005-03-07 07:47:03 51°15.492 2°53.984 14.8 6 3.9 102430 93
2005-03-07 07:47:08 51°15.506 2°53.971 16 8 3.9 102430 93
2005-03-07 07:47:14 51°15.524 2°53.955 16.1 6 3.9 102440 93
2005-03-07 07:47:17 51°15.535 2°53.944 15.6 8 3.9 102440 93
2005-03-07 07:47:23 51°15.554 2°53.928 16 4 3.9 102440 93
2005-03-07 07:47:28 51°15.568 2°53.915 14.3 6 3.9 102440 93
2005-03-07 07:47:34 51°15.586 2°53.899 14.8 9 3.9 102440 94
2005-03-07 07:47:38 51°15.6 2°53.887 14.9 9 3.9 102440 94
2005-03-07 07:47:43 51°15.614 2°53.874 14.9 7 3.9 102430 93
2005-03-07 07:47:48 51°15.628 2°53.861 15.8 7 3.9 102430 93
2005-03-07 07:47:52 51°15.642 2°53.849 15.3 8 3.9 102440 93
2005-03-07 07:47:58 51°15.661 2°53.832 16.6 6 3.9 102440 93
2005-03-07 07:48:03 51°15.676 2°53.819 16.2 7 3.9 102440 93
2005-03-07 07:48:08 51°15.69 2°53.807 16.8 12 3.9 102440 93
2005-03-07 07:48:12 51°15.704 2°53.795 16.5 8 4 102430 93
2005-03-07 07:48:18 51°15.721 2°53.78 15.7 9 4 102430 93
2005-03-07 07:48:24 51°15.739 2°53.764 15.4 9 4 102430 93
2005-03-07 07:48:28 51°15.753 2°53.751 15.9 8 4 102430 93
2005-03-07 07:48:34 51°15.77 2°53.735 14.8 9 4 102430 93
2005-03-07 07:48:38 51°15.782 2°53.725 16.2 8 4 102430 93
2005-03-07 07:48:44 51°15.801 2°53.709 18.4 9 4 102430 93
2005-03-07 07:48:48 51°15.814 2°53.697 17.2 9 4 102430 93
2005-03-07 07:48:53 51°15.83 2°53.684 17.6 4 4 102430 93
2005-03-07 07:48:58 51°15.844 2°53.672 16.2 12 4 102430 93
2005-03-07 07:49:03 51°15.861 2°53.657 16.9 10 4 102430 93
2005-03-07 07:49:08 51°15.876 2°53.644 16.3 9 4 102430 93
2005-03-07 07:49:12 51°15.887 2°53.635 16.5 8 3.9 102430 93
2005-03-07 07:49:19 51°15.908 2°53.617 15.8 10 3.9 102430 93
2005-03-07 07:49:24 51°15.924 2°53.603 18.6 13 4 102430 93
2005-03-07 07:49:29 51°15.94 2°53.589 18.9 10 4 102430 93
2005-03-07 07:49:33 51°15.953 2°53.578 19.4 10 4 102430 93
2005-03-07 07:49:38 51°15.967 2°53.565 17.3 11 4 102430 93
2005-03-07 07:49:44 51°15.984 2°53.551 15.9 10 4 102420 93
2005-03-07 07:49:48 51°15.997 2°53.539 15.5 12 4 102420 93
2005-03-07 07:49:53 51°16.012 2°53.526 16.4 13 4 102420 93
2005-03-07 07:49:58 51°16.028 2°53.512 16.5 10 4 102420 93
2005-03-07 07:50:02 51°16.039 2°53.503 18 11 4 102410 93
2005-03-07 07:50:09 51°16.06 2°53.485 17.4 11 4 102410 93
2005-03-07 07:50:13 51°16.074 2°53.472 17.4 7 4 102430 93
2005-03-07 07:50:18 51°16.089 2°53.46 16.5 11 4 102430 93
2005-03-07 07:50:23 51°16.104 2°53.446 17.3 12 4 102430 93
2005-03-07 07:50:29 51°16.122 2°53.432 15.5 12 4 102430 93
2005-03-07 07:50:34 51°16.137 2°53.419 15 7 4 102420 93
2005-03-07 07:50:38 51°16.151 2°53.407 16.5 9 4 102420 93
2005-03-07 07:50:44 51°16.168 2°53.392 17.7 9 4 102420 93
2005-03-07 07:50:48 51°16.181 2°53.381 14.2 11 4 102420 93
2005-03-07 07:50:53 51°16.194 2°53.369 16.2 9 4 102430 93
2005-03-07 07:50:57 51°16.209 2°53.357 15.2 11 4 102430 93
2005-03-07 07:51:04 51°16.229 2°53.34 15.9 7 4 102430 93
2005-03-07 07:51:08 51°16.243 2°53.329 14.4 11 4 102430 93
2005-03-07 07:51:13 51°16.257 2°53.317 15.9 7 4 102420 93
2005-03-07 07:51:19 51°16.275 2°53.301 16.8 12 4 102420 93
2005-03-07 07:51:23 51°16.29 2°53.289 15.9 9 4 102430 93
2005-03-07 07:51:28 51°16.305 2°53.276 13.5 11 4 102430 93
2005-03-07 07:51:33 51°16.318 2°53.264 16.4 9 4 102430 93
2005-03-07 07:51:38 51°16.335 2°53.25 15.3 9 4 102430 93
2005-03-07 07:51:44 51°16.352 2°53.235 14.9 9 4 102430 93
2005-03-07 07:51:48 51°16.367 2°53.223 17 7 4 102430 93
2005-03-07 07:51:53 51°16.382 2°53.21 15.8 11 4 102430 93
2005-03-07 07:51:58 51°16.398 2°53.196 18 13 4 102430 93
2005-03-07 07:52:02 51°16.41 2°53.186 16.1 11 4 102430 93
2005-03-07 07:52:08 51°16.428 2°53.17 15.3 11 4 102430 93
2005-03-07 07:52:13 51°16.443 2°53.157 16 9 4 102430 93
2005-03-07 07:52:18 51°16.459 2°53.143 15.4 9 4 102430 93
2005-03-07 07:52:23 51°16.474 2°53.13 15.6 12 4 102430 93
2005-03-07 07:52:28 51°16.489 2°53.117 15.8 9 4 102430 93
2005-03-07 07:52:34 51°16.506 2°53.103 18.5 13 4 102430 93
2005-03-07 07:52:38 51°16.52 2°53.091 17.1 7 4 102430 93
2005-03-07 07:52:43 51°16.535 2°53.078 16.4 13 4 102430 93
2005-03-07 07:52:48 51°16.55 2°53.064 15.7 15 4 102430 93
2005-03-07 07:52:54 51°16.567 2°53.05 15.5 12 4 102430 93
2005-03-07 07:52:58 51°16.581 2°53.037 15.6 11 4 102430 93
2005-03-07 07:53:02 51°16.593 2°53.027 16.9 14 4 102420 93
2005-03-07 07:53:08 51°16.61 2°53.011 16.6 15 4 102420 93
2005-03-07 07:53:14 51°16.629 2°52.995 18.1 13 4 102420 93
2005-03-07 07:53:18 51°16.641 2°52.985 16.6 12 4 102420 93
2005-03-07 07:53:24 51°16.659 2°52.969 16.2 14 4 102430 93
2005-03-07 07:53:28 51°16.672 2°52.956 17.5 9 4 102430 93
2005-03-07 07:53:32 51°16.685 2°52.945 16.1 10 4 102430 93
2005-03-07 07:53:39 51°16.705 2°52.927 18.2 9 4 102430 93
2005-03-07 07:53:44 51°16.718 2°52.915 15.7 8 4 102430 93
2005-03-07 07:53:49 51°16.735 2°52.9 18.9 15 4 102430 93
2005-03-07 07:53:53 51°16.745 2°52.889 18.4 13 4 102420 93
2005-03-07 07:53:59 51°16.759 2°52.875 16.3 9 4 102420 93
2005-03-07 07:54:04 51°16.775 2°52.861 17.1 8 4 102430 93
2005-03-07 07:54:09 51°16.789 2°52.849 17.4 7 4 102430 93
2005-03-07 07:54:12 51°16.799 2°52.84 16 8 4 102430 93
2005-03-07 07:54:19 51°16.819 2°52.824 16.1 9 4 102430 93
2005-03-07 07:54:24 51°16.834 2°52.814 17.5 6 4 102420 93
2005-03-07 07:54:28 51°16.847 2°52.805 16.6 6 4 102420 93
2005-03-07 07:54:34 51°16.865 2°52.792 16.5 10 3.9 102430 94
2005-03-07 07:54:37 51°16.876 2°52.784 19 4 3.9 102430 94
2005-03-07 07:54:43 51°16.895 2°52.771 17.8 10 3.9 102440 94
2005-03-07 07:54:48 51°16.911 2°52.76 16.1 8 3.9 102440 94
2005-03-07 07:54:54 51°16.929 2°52.748 17.5 6 3.9 102430 94
2005-03-07 07:54:58 51°16.943 2°52.739 16.7 9 3.9 102430 94
2005-03-07 07:55:03 51°16.959 2°52.728 18 5 3.9 102430 94
2005-03-07 07:55:08 51°16.974 2°52.717 16.4 6 3.9 102430 94
2005-03-07 07:55:13 51°16.991 2°52.706 15.7 6 3.9 102420 94
2005-03-07 07:55:18 51°17.006 2°52.696 17.6 6 3.9 102420 94
2005-03-07 07:55:24 51°17.025 2°52.683 17 3 3.9 102430 94
2005-03-07 07:55:28 51°17.039 2°52.674 16.8 5 3.9 102430 94
2005-03-07 07:55:34 51°17.058 2°52.662 17.3 10 3.9 102430 94
2005-03-07 07:55:38 51°17.072 2°52.652 15.7 7 3.9 102430 94
2005-03-07 07:55:43 51°17.088 2°52.642 17.8 7 3.9 102440 94
2005-03-07 07:55:49 51°17.105 2°52.631 17 8 3.9 102440 94
2005-03-07 07:55:52 51°17.116 2°52.624 17.2 3 3.9 102430 94
2005-03-07 07:55:59 51°17.138 2°52.61 17 5 3.9 102430 94
2005-03-07 07:56:03 51°17.152 2°52.601 17.1 6 3.9 102440 94
2005-03-07 07:56:08 51°17.168 2°52.59 15.3 4 3.9 102440 94
2005-03-07 07:56:13 51°17.181 2°52.581 15.8 6 3.9 102420 95
2005-03-07 07:56:17 51°17.196 2°52.57 16.8 7 3.9 102420 95
2005-03-07 07:56:24 51°17.218 2°52.556 16.7 5 3.9 102440 95
2005-03-07 07:56:28 51°17.232 2°52.547 17 9 3.9 102440 95
2005-03-07 07:56:33 51°17.248 2°52.537 17.4 10 3.9 102430 95
2005-03-07 07:56:38 51°17.264 2°52.526 17 7 3.9 102430 95
2005-03-07 07:56:43 51°17.28 2°52.515 17.3 9 3.9 102440 95
2005-03-07 07:56:48 51°17.296 2°52.504 15.8 6 3.9 102440 95
2005-03-07 07:56:54 51°17.315 2°52.491 16.9 7 3.9 102430 95
2005-03-07 07:56:58 51°17.327 2°52.483 16.4 10 3.9 102430 95
2005-03-07 07:57:04 51°17.346 2°52.47 16.1 5 3.9 102430 95
2005-03-07 07:57:08 51°17.361 2°52.46 16.3 2 3.9 102430 95
2005-03-07 07:57:12 51°17.374 2°52.451 17.7 11 3.9 102440 95
2005-03-07 07:57:18 51°17.394 2°52.438 16.5 7 3.9 102440 95
2005-03-07 07:57:23 51°17.408 2°52.429 16.3 9 3.9 102440 95
2005-03-07 07:57:28 51°17.427 2°52.416 17 4 3.9 102440 95
2005-03-07 07:57:34 51°17.445 2°52.406 16.7 6 3.9 102430 95
2005-03-07 07:57:39 51°17.461 2°52.399 17.3 6 3.9 102430 95
2005-03-07 07:57:44 51°17.479 2°52.391 18.1 1 3.9 102430 95
2005-03-07 07:57:48 51°17.493 2°52.386 16.2 359 3.9 102430 95
2005-03-07 07:57:53 51°17.51 2°52.379 15.9 357 3.9 102430 95
2005-03-07 07:57:58 51°17.527 2°52.374 15.5 3 3.9 102430 95
2005-03-07 07:58:03 51°17.545 2°52.368 16.3 358 3.9 102430 95
2005-03-07 07:58:08 51°17.562 2°52.363 16.5 359 3.9 102430 95
2005-03-07 07:58:13 51°17.578 2°52.357 14.8 1 3.9 102430 95
2005-03-07 07:58:18 51°17.593 2°52.352 17.7 3 3.9 102430 95
2005-03-07 07:58:24 51°17.615 2°52.345 17.2 359 3.9 102430 95
2005-03-07 07:58:29 51°17.632 2°52.339 17.1 357 3.9 102430 95
2005-03-07 07:58:32 51°17.643 2°52.336 14.2 360 3.9 102430 95
2005-03-07 07:58:36 51°17.657 2°52.332 16 358 3.9 102430 95
2005-03-07 07:58:44 51°17.683 2°52.323 17.5 358 3.9 102430 95
2005-03-07 07:58:49 51°17.701 2°52.317 16.7 356 3.9 102430 95
2005-03-07 07:58:52 51°17.713 2°52.314 16.2 1 3.9 102430 95
2005-03-07 07:58:59 51°17.736 2°52.306 16.3 356 3.9 102430 95
2005-03-07 07:59:03 51°17.75 2°52.302 14.4 -999 3.9 102440 95
2005-03-07 07:59:08 51°17.766 2°52.298 16.5 359 3.9 102440 95
2005-03-07 07:59:14 51°17.787 2°52.292 16.9 355 4 102430 95
2005-03-07 07:59:19 51°17.805 2°52.288 16.5 356 4 102430 95
2005-03-07 07:59:23 51°17.821 2°52.285 17.3 356 4 102430 95
2005-03-07 07:59:28 51°17.838 2°52.283 15.8 356 4 102430 95
2005-03-07 07:59:33 51°17.856 2°52.281 16.9 354 4 102430 95
2005-03-07 07:59:39 51°17.876 2°52.279 16.7 352 4 102430 95
2005-03-07 07:59:43 51°17.891 2°52.277 16.5 355 4 102430 95
2005-03-07 07:59:48 51°17.907 2°52.275 16.3 354 4 102430 95
2005-03-07 07:59:54 51°17.928 2°52.273 16.5 355 4 102430 95
2005-03-07 07:59:59 51°17.947 2°52.271 16 352 4 102430 95
2005-03-07 08:00:03 51°17.961 2°52.272 16.2 352 4 102430 95
2005-03-07 08:00:08 51°17.978 2°52.272 16.1 349 4 102430 95
2005-03-07 08:00:14 51°17.998 2°52.272 16.6 350 4 102420 95
2005-03-07 08:00:18 51°18.014 2°52.273 15.5 347 4 102420 95
2005-03-07 08:00:24 51°18.033 2°52.276 15.4 349 4 102420 94
2005-03-07 08:00:28 51°18.047 2°52.279 16.4 344 4 102420 94
2005-03-07 08:00:34 51°18.068 2°52.287 16.1 344 4 102420 94
2005-03-07 08:00:38 51°18.083 2°52.293 14.6 342 4 102420 94
2005-03-07 08:00:43 51°18.101 2°52.304 16.1 339 4 102430 94
2005-03-07 08:00:48 51°18.117 2°52.314 15.2 339 4 102430 94
2005-03-07 08:00:52 51°18.131 2°52.322 14.9 337 4 102430 94
2005-03-07 08:00:58 51°18.149 2°52.334 15.6 341 4 102430 94
2005-03-07 08:01:04 51°18.17 2°52.35 15.8 342 4 102420 94
2005-03-07 08:01:08 51°18.185 2°52.36 14.4 339 4 102420 94
2005-03-07 08:01:13 51°18.2 2°52.372 13.6 336 4 102420 94
2005-03-07 08:01:17 51°18.212 2°52.381 16.1 337 4 102420 94
2005-03-07 08:01:22 51°18.231 2°52.395 15.6 337 4 102420 94
2005-03-07 08:01:28 51°18.249 2°52.407 16.2 335 4 102420 94
2005-03-07 08:01:34 51°18.27 2°52.422 14.8 338 4 102420 94
2005-03-07 08:01:38 51°18.286 2°52.432 14.8 337 4 102420 94
2005-03-07 08:01:43 51°18.302 2°52.443 14.8 336 4 102430 94
2005-03-07 08:01:48 51°18.316 2°52.453 16.3 338 4 102430 94
2005-03-07 08:01:54 51°18.338 2°52.467 15.3 338 4 102420 94
2005-03-07 08:01:59 51°18.353 2°52.478 15 335 4 102420 94
2005-03-07 08:02:03 51°18.367 2°52.488 14.9 339 4 102430 94
2005-03-07 08:02:08 51°18.383 2°52.499 16.5 343 4 102430 94
2005-03-07 08:02:14 51°18.405 2°52.513 15.7 342 4 102420 94
2005-03-07 08:02:18 51°18.42 2°52.523 15.6 337 4 102420 94
2005-03-07 08:02:23 51°18.435 2°52.535 14.8 338 4 102420 94
2005-03-07 08:02:28 51°18.452 2°52.546 16 346 4 102420 94
2005-03-07 08:02:32 51°18.463 2°52.554 15 342 4 102420 94
2005-03-07 08:02:38 51°18.482 2°52.567 16.6 341 4 102420 94
2005-03-07 08:02:44 51°18.504 2°52.582 16 340 4 102440 94
2005-03-07 08:02:48 51°18.516 2°52.591 15.1 338 4 102440 94
2005-03-07 08:02:53 51°18.535 2°52.602 16.1 338 4 102410 94
2005-03-07 08:02:59 51°18.553 2°52.614 15.9 338 4 102410 94
2005-03-07 08:03:04 51°18.57 2°52.624 15 340 4 102440 94
2005-03-07 08:03:09 51°18.588 2°52.635 15.6 342 4 102440 94
2005-03-07 08:03:14 51°18.603 2°52.645 15.2 339 4 102430 94
2005-03-07 08:03:18 51°18.618 2°52.652 15.7 342 4 102430 94
2005-03-07 08:03:24 51°18.639 2°52.667 14.7 342 4.1 102440 94
2005-03-07 08:03:28 51°18.654 2°52.676 16.2 339 4.1 102440 94
2005-03-07 08:03:33 51°18.669 2°52.686 17.2 338 4.1 102430 94
2005-03-07 08:03:38 51°18.687 2°52.697 13.8 339 4.1 102430 94
2005-03-07 08:03:41 51°18.698 2°52.704 14.7 340 4 102420 94
2005-03-07 08:03:49 51°18.723 2°52.72 16.9 340 4 102420 94
2005-03-07 08:03:54 51°18.739 2°52.731 16.6 340 4.1 102450 94
2005-03-07 08:03:58 51°18.753 2°52.741 14.3 336 4.1 102450 94
2005-03-07 08:04:03 51°18.77 2°52.752 13.4 341 4.1 102430 94
2005-03-07 08:04:08 51°18.788 2°52.764 15.7 338 4.1 102430 94
2005-03-07 08:04:14 51°18.803 2°52.775 15.2 338 4.1 102440 94
2005-03-07 08:04:18 51°18.818 2°52.785 15.4 337 4.1 102440 94
2005-03-07 08:04:23 51°18.835 2°52.797 15.4 341 4.1 102430 94
2005-03-07 08:04:28 51°18.852 2°52.806 14 341 4.1 102430 94
2005-03-07 08:04:34 51°18.869 2°52.818 15 338 4.1 102460 94
2005-03-07 08:04:39 51°18.888 2°52.829 17.4 337 4.1 102460 94
2005-03-07 08:04:44 51°18.903 2°52.839 14.1 340 4.1 102430 94
2005-03-07 08:04:48 51°18.918 2°52.849 15.5 342 4.1 102430 94
2005-03-07 08:04:53 51°18.935 2°52.86 16.1 341 4.1 102430 94
2005-03-07 08:04:59 51°18.953 2°52.872 14 340 4.1 102430 94
2005-03-07 08:05:02 51°18.965 2°52.88 14.7 338 4.1 102430 94
2005-03-07 08:05:08 51°18.985 2°52.893 14.7 337 4.1 102430 94
2005-03-07 08:05:13 51°19.001 2°52.905 16.4 340 4.1 102440 94
2005-03-07 08:05:18 51°19.018 2°52.917 17.4 338 4.1 102440 94
2005-03-07 08:05:24 51°19.036 2°52.93 15 337 4.1 102420 94
2005-03-07 08:05:28 51°19.051 2°52.941 15.9 335 4.1 102420 94
2005-03-07 08:05:32 51°19.064 2°52.951 17.2 340 4.1 102440 94
2005-03-07 08:05:38 51°19.083 2°52.964 15.3 339 4.1 102440 94
2005-03-07 08:05:44 51°19.102 2°52.977 15.4 338 4.1 102410 94
2005-03-07 08:05:48 51°19.118 2°52.987 16 337 4.1 102410 94
2005-03-07 08:05:53 51°19.134 2°52.999 14.8 339 4.1 102440 94
2005-03-07 08:05:58 51°19.152 2°53.011 15.7 341 4.1 102440 94
2005-03-07 08:06:04 51°19.17 2°53.023 15.4 335 4.1 102430 94
2005-03-07 08:06:09 51°19.186 2°53.035 15.1 330 4.1 102430 94
2005-03-07 08:06:12 51°19.197 2°53.042 14.5 336 4.1 102440 94
2005-03-07 08:06:18 51°19.213 2°53.055 18.3 334 4.1 102440 94
2005-03-07 08:06:24 51°19.234 2°53.071 15.7 337 4.1 102440 94
2005-03-07 08:06:28 51°19.248 2°53.08 18 337 4.1 102440 94
2005-03-07 08:06:33 51°19.263 2°53.09 17.3 336 4.1 102450 94
2005-03-07 08:06:38 51°19.279 2°53.1 15.9 337 4.1 102450 94
2005-03-07 08:06:44 51°19.298 2°53.114 14.6 340 4.1 102420 94
2005-03-07 08:06:48 51°19.313 2°53.124 15.2 333 4.1 102420 94
2005-03-07 08:06:54 51°19.331 2°53.137 14.1 339 4.1 102430 94
2005-03-07 08:06:57 51°19.343 2°53.144 16.6 342 4.1 102430 94
2005-03-07 08:07:04 51°19.365 2°53.158 16.1 337 4.1 102420 94
2005-03-07 08:07:08 51°19.376 2°53.168 17.4 341 4.1 102420 94
2005-03-07 08:07:14 51°19.398 2°53.183 17.3 340 4.1 102440 94
2005-03-07 08:07:18 51°19.41 2°53.192 16.2 338 4.1 102440 94
2005-03-07 08:07:22 51°19.422 2°53.202 17.7 337 4.1 102440 94
2005-03-07 08:07:28 51°19.442 2°53.216 16.8 343 4.1 102440 94
2005-03-07 08:07:32 51°19.455 2°53.226 16.3 337 4.1 102440 94
2005-03-07 08:07:39 51°19.477 2°53.24 13.6 338 4.1 102440 94
2005-03-07 08:07:44 51°19.492 2°53.251 15.6 334 4.1 102420 94
2005-03-07 08:07:48 51°19.505 2°53.261 16.1 342 4.1 102420 94
2005-03-07 08:07:53 51°19.524 2°53.273 14.1 336 4.1 102410 94
2005-03-07 08:07:58 51°19.538 2°53.283 16.8 338 4.1 102410 94
2005-03-07 08:08:04 51°19.559 2°53.298 16.1 336 4.1 102430 94
2005-03-07 08:08:08 51°19.574 2°53.308 13.7 335 4.1 102430 94
2005-03-07 08:08:14 51°19.592 2°53.319 15.2 337 4.1 102430 94
2005-03-07 08:08:18 51°19.608 2°53.331 15 333 4.1 102430 94
2005-03-07 08:08:24 51°19.625 2°53.342 14.9 337 4.1 102430 94
2005-03-07 08:08:29 51°19.641 2°53.354 16.5 337 4.1 102430 94
2005-03-07 08:08:32 51°19.652 2°53.363 16.8 339 4.1 102440 94
2005-03-07 08:08:38 51°19.673 2°53.376 14.2 333 4.1 102440 94
2005-03-07 08:08:44 51°19.688 2°53.386 14.9 333 4.1 102430 94
2005-03-07 08:08:48 51°19.704 2°53.397 16 335 4.1 102430 94
2005-03-07 08:08:54 51°19.722 2°53.409 15.1 340 4.1 102420 94
2005-03-07 08:08:58 51°19.734 2°53.418 15.3 332 4.1 102420 94
2005-03-07 08:09:04 51°19.754 2°53.431 14.7 335 4.1 102420 94
2005-03-07 08:09:08 51°19.768 2°53.44 16.7 337 4.1 102420 94
2005-03-07 08:09:13 51°19.785 2°53.452 15.8 342 4.1 102430 94
2005-03-07 08:09:19 51°19.803 2°53.463 16.3 338 4.1 102430 94
2005-03-07 08:09:24 51°19.819 2°53.475 15.5 338 4.1 102440 94
2005-03-07 08:09:28 51°19.834 2°53.484 15.4 341 4.1 102440 94
2005-03-07 08:09:33 51°19.851 2°53.496 16.4 339 4.1 102420 94
2005-03-07 08:09:39 51°19.869 2°53.508 15.4 336 4.1 102420 94
2005-03-07 08:09:44 51°19.886 2°53.52 15.7 334 4.1 102420 94
2005-03-07 08:09:48 51°19.9 2°53.53 14.3 333 4.1 102420 94
2005-03-07 08:09:52 51°19.913 2°53.54 14.2 337 4.1 102440 94
2005-03-07 08:09:56 51°19.926 2°53.548 14.9 340 4.1 102440 94
2005-03-07 08:10:03 51°19.948 2°53.563 15.2 337 4.1 102430 94
2005-03-07 08:10:09 51°19.966 2°53.576 13.8 337 4.1 102430 94
2005-03-07 08:10:13 51°19.98 2°53.587 16 336 4.1 102440 94
2005-03-07 08:10:18 51°19.995 2°53.6 14.4 333 4.1 102440 94
2005-03-07 08:10:24 51°20.012 2°53.612 15 337 4.1 102450 94
2005-03-07 08:10:28 51°20.026 2°53.621 15.5 333 4.1 102450 94
2005-03-07 08:10:34 51°20.043 2°53.634 16.5 341 4.2 102420 94
2005-03-07 08:10:38 51°20.059 2°53.644 16 339 4.2 102420 94
2005-03-07 08:10:44 51°20.077 2°53.657 16.5 340 4.1 102450 94
2005-03-07 08:10:48 51°20.091 2°53.667 15.9 338 4.1 102450 94
2005-03-07 08:10:54 51°20.11 2°53.678 16.8 343 4.1 102420 94
2005-03-07 08:10:59 51°20.127 2°53.691 17.2 338 4.1 102420 94
2005-03-07 08:11:03 51°20.142 2°53.7 17.5 336 4.1 102430 94
2005-03-07 08:11:08 51°20.157 2°53.711 14.6 337 4.1 102430 94
2005-03-07 08:11:14 51°20.177 2°53.724 15.4 335 4.1 102420 93
2005-03-07 08:11:19 51°20.193 2°53.735 14.4 340 4.1 102420 93
2005-03-07 08:11:24 51°20.21 2°53.748 15.3 339 4.1 102440 93
2005-03-07 08:11:28 51°20.225 2°53.758 15.8 342 4.1 102440 93
2005-03-07 08:11:34 51°20.244 2°53.772 15.9 340 4.1 102420 93
2005-03-07 08:11:39 51°20.262 2°53.784 14.3 337 4.1 102420 93
2005-03-07 08:11:44 51°20.277 2°53.796 13.7 341 4.2 102420 93
2005-03-07 08:11:48 51°20.294 2°53.806 15.3 335 4.2 102420 93
2005-03-07 08:11:54 51°20.312 2°53.819 16.5 339 4.1 102430 93
2005-03-07 08:11:58 51°20.327 2°53.829 16.9 336 4.1 102430 93
2005-03-07 08:12:04 51°20.346 2°53.841 16.7 339 4.2 102430 93
2005-03-07 08:12:09 51°20.361 2°53.852 16.7 339 4.2 102430 93
2005-03-07 08:12:12 51°20.373 2°53.86 18 338 4.1 102460 93
2005-03-07 08:12:18 51°20.394 2°53.874 15.1 338 4.1 102460 93
2005-03-07 08:12:24 51°20.409 2°53.884 14.9 329 4.1 102420 93
2005-03-07 08:12:29 51°20.426 2°53.896 17 336 4.1 102420 93
2005-03-07 08:12:33 51°20.44 2°53.907 16.2 340 4.1 102420 93
2005-03-07 08:12:39 51°20.458 2°53.919 15.9 335 4.1 102420 93
2005-03-07 08:12:44 51°20.473 2°53.931 16.3 333 4.1 102440 93
2005-03-07 08:12:49 51°20.489 2°53.942 16 333 4.1 102440 93
2005-03-07 08:12:52 51°20.5 2°53.95 17 341 4.1 102420 93
2005-03-07 08:12:58 51°20.518 2°53.963 16.5 336 4.1 102420 93
2005-03-07 08:13:03 51°20.536 2°53.975 15.2 335 4.2 102450 93
2005-03-07 08:13:08 51°20.551 2°53.985 14 339 4.2 102450 93
2005-03-07 08:13:14 51°20.571 2°53.999 16.2 341 4.1 102430 93
2005-03-07 08:13:18 51°20.584 2°54.008 15.6 336 4.1 102430 93
2005-03-07 08:13:24 51°20.605 2°54.022 15.6 336 4.1 102420 93
2005-03-07 08:13:28 51°20.62 2°54.032 14.5 341 4.1 102420 93
2005-03-07 08:13:34 51°20.638 2°54.044 15.9 336 4.2 102440 93
2005-03-07 08:13:38 51°20.651 2°54.053 17.7 337 4.2 102440 93
2005-03-07 08:13:43 51°20.67 2°54.067 17.4 337 4.1 102420 93
2005-03-07 08:13:48 51°20.686 2°54.078 16.4 340 4.1 102420 93
2005-03-07 08:13:53 51°20.702 2°54.09 14.3 340 4.2 102440 93
2005-03-07 08:13:58 51°20.719 2°54.101 16.3 336 4.2 102440 93
2005-03-07 08:14:03 51°20.736 2°54.112 15.4 338 4.1 102410 93
2005-03-07 08:14:08 51°20.751 2°54.121 17.5 338 4.1 102410 93
2005-03-07 08:14:12 51°20.766 2°54.132 17.1 340 4.1 102410 93
2005-03-07 08:14:17 51°20.782 2°54.143 16.6 339 4.1 102410 93
2005-03-07 08:14:23 51°20.802 2°54.158 16.4 340 4.1 102430 93
2005-03-07 08:14:29 51°20.822 2°54.171 14.8 338 4.1 102430 93
2005-03-07 08:14:34 51°20.838 2°54.182 15.1 340 4.1 102420 93
2005-03-07 08:14:38 51°20.853 2°54.193 15.6 339 4.1 102420 93
2005-03-07 08:14:43 51°20.87 2°54.204 16.1 337 4.1 102430 93
2005-03-07 08:14:49 51°20.888 2°54.216 14.5 332 4.1 102430 93
2005-03-07 08:14:52 51°20.899 2°54.223 13.8 334 4.1 102440 93
2005-03-07 08:14:59 51°20.919 2°54.238 13.3 336 4.1 102440 93
2005-03-07 08:15:03 51°20.934 2°54.248 15.4 336 4.1 102420 93
2005-03-07 08:15:08 51°20.95 2°54.261 15.7 333 4.1 102420 93
2005-03-07 08:15:12 51°20.963 2°54.271 16.3 333 4.1 102430 93
2005-03-07 08:15:17 51°20.978 2°54.282 17 332 4.1 102430 93
2005-03-07 08:15:22 51°20.996 2°54.297 17.8 336 4.1 102430 93
2005-03-07 08:15:28 51°21.014 2°54.312 14.9 334 4.1 102430 93
2005-03-07 08:15:34 51°21.031 2°54.327 14.6 335 4.2 102440 93
2005-03-07 08:15:38 51°21.045 2°54.337 14.2 334 4.2 102440 93
2005-03-07 08:15:43 51°21.063 2°54.351 15 336 4.1 102420 93
2005-03-07 08:15:48 51°21.078 2°54.363 13 334 4.1 102420 93
2005-03-07 08:15:54 51°21.096 2°54.379 14.8 337 4.1 102430 93
2005-03-07 08:15:58 51°21.109 2°54.388 15.5 334 4.1 102430 93
2005-03-07 08:16:04 51°21.129 2°54.403 15.1 332 4.2 102440 93
2005-03-07 08:16:08 51°21.144 2°54.415 15.5 337 4.2 102440 93
2005-03-07 08:16:12 51°21.157 2°54.425 14.2 335 4.1 102420 93
2005-03-07 08:16:19 51°21.178 2°54.442 14.6 331 4.1 102420 93
2005-03-07 08:16:24 51°21.195 2°54.454 16.3 333 4.2 102440 93
2005-03-07 08:16:28 51°21.209 2°54.465 16.7 336 4.2 102440 93
2005-03-07 08:16:34 51°21.229 2°54.48 15.3 335 4.2 102420 93
2005-03-07 08:16:39 51°21.246 2°54.494 16.8 336 4.2 102420 93
2005-03-07 08:16:43 51°21.261 2°54.506 18.4 337 4.2 102430 93
2005-03-07 08:16:49 51°21.276 2°54.52 14.5 332 4.2 102430 93
2005-03-07 08:16:54 51°21.293 2°54.534 16.7 336 4.1 102430 93
2005-03-07 08:16:58 51°21.305 2°54.543 16.2 340 4.1 102430 93
2005-03-07 08:17:03 51°21.324 2°54.559 16.7 336 4.2 102430 93
2005-03-07 08:17:08 51°21.339 2°54.571 14.6 338 4.2 102430 93
2005-03-07 08:17:14 51°21.357 2°54.587 14.9 338 4.2 102420 93
2005-03-07 08:17:18 51°21.371 2°54.598 13.5 333 4.2 102420 93
2005-03-07 08:17:24 51°21.389 2°54.612 15.2 333 4.2 102420 93
2005-03-07 08:17:29 51°21.407 2°54.626 15.2 333 4.2 102420 93
2005-03-07 08:17:33 51°21.421 2°54.638 15.6 337 4.2 102400 93
2005-03-07 08:17:38 51°21.436 2°54.65 15.5 333 4.2 102400 93
2005-03-07 08:17:44 51°21.457 2°54.667 16.8 335 4.2 102440 93
2005-03-07 08:17:49 51°21.473 2°54.679 14.6 337 4.2 102440 93
2005-03-07 08:17:54 51°21.489 2°54.691 15.2 332 4.2 102440 93
2005-03-07 08:17:59 51°21.505 2°54.705 16.6 341 4.2 102440 93
2005-03-07 08:18:04 51°21.523 2°54.72 17.1 338 4.2 102430 93
2005-03-07 08:18:09 51°21.539 2°54.732 15 332 4.2 102430 93
2005-03-07 08:18:14 51°21.555 2°54.746 16 338 4.2 102420 93
2005-03-07 08:18:19 51°21.572 2°54.759 15.3 336 4.2 102420 93
2005-03-07 08:18:24 51°21.586 2°54.772 15.4 331 4.2 102410 93
2005-03-07 08:18:28 51°21.602 2°54.784 15.4 332 4.2 102410 93
2005-03-07 08:18:33 51°21.617 2°54.796 15.7 335 4.2 102430 93
2005-03-07 08:18:38 51°21.636 2°54.811 14.6 337 4.2 102430 93
2005-03-07 08:18:44 51°21.653 2°54.824 14.5 330 4.2 102420 93
2005-03-07 08:18:48 51°21.668 2°54.838 17.5 340 4.2 102420 93
2005-03-07 08:18:54 51°21.687 2°54.851 16.3 335 4.2 102420 93
2005-03-07 08:18:58 51°21.699 2°54.862 14.5 338 4.2 102420 93
2005-03-07 08:19:04 51°21.718 2°54.877 14.1 339 4.2 102430 93
2005-03-07 08:19:08 51°21.733 2°54.889 16.3 337 4.2 102430 93
2005-03-07 08:19:14 51°21.752 2°54.903 16.7 335 4.2 102440 93
2005-03-07 08:19:18 51°21.767 2°54.915 14.1 341 4.2 102440 93
2005-03-07 08:19:24 51°21.784 2°54.929 15.1 333 4.2 102420 93
2005-03-07 08:19:28 51°21.8 2°54.941 16.4 339 4.2 102420 93
2005-03-07 08:19:34 51°21.817 2°54.955 14.1 333 4.2 102410 93
2005-03-07 08:19:39 51°21.835 2°54.97 16 337 4.2 102410 93
2005-03-07 08:19:43 51°21.849 2°54.981 16.9 337 4.2 102420 93
2005-03-07 08:19:48 51°21.864 2°54.994 15 334 4.2 102420 93
2005-03-07 08:19:52 51°21.878 2°55.005 14.4 335 4.2 102430 92
2005-03-07 08:19:59 51°21.9 2°55.021 16.7 332 4.2 102430 92
2005-03-07 08:20:03 51°21.914 2°55.032 16.2 335 4.2 102420 92
2005-03-07 08:20:08 51°21.929 2°55.043 16.3 337 4.2 102420 92
2005-03-07 08:20:14 51°21.949 2°55.056 16.4 335 4.2 102420 92
2005-03-07 08:20:18 51°21.964 2°55.068 16.5 336 4.2 102420 92
2005-03-07 08:20:24 51°21.984 2°55.08 15.6 341 4.2 102430 92
2005-03-07 08:20:28 51°21.998 2°55.09 14 338 4.2 102430 92
2005-03-07 08:20:34 51°22.017 2°55.104 14.9 338 4.2 102420 92
2005-03-07 08:20:38 51°22.03 2°55.112 15.6 337 4.2 102420 92
2005-03-07 08:20:44 51°22.05 2°55.126 17.2 343 4.2 102400 92
2005-03-07 08:20:48 51°22.063 2°55.134 16.4 335 4.2 102400 92
2005-03-07 08:20:53 51°22.082 2°55.147 16.3 334 4.2 102430 92
2005-03-07 08:20:58 51°22.098 2°55.158 16.5 333 4.2 102430 92
2005-03-07 08:21:04 51°22.116 2°55.17 13.9 340 4.2 102430 92
2005-03-07 08:21:08 51°22.132 2°55.181 16.3 339 4.2 102430 92
2005-03-07 08:21:14 51°22.149 2°55.193 16.5 333 4.2 102410 92
2005-03-07 08:21:19 51°22.166 2°55.204 15.6 338 4.2 102410 92
2005-03-07 08:21:23 51°22.18 2°55.215 16.7 336 4.2 102410 92
2005-03-07 08:21:29 51°22.198 2°55.228 15.7 338 4.2 102410 92
2005-03-07 08:21:34 51°22.215 2°55.24 16.3 336 4.2 102440 92
2005-03-07 08:21:38 51°22.228 2°55.249 16.3 337 4.2 102440 92
2005-03-07 08:21:44 51°22.25 2°55.263 15.9 337 4.2 102410 92
2005-03-07 08:21:49 51°22.265 2°55.275 13.5 341 4.2 102410 92
2005-03-07 08:21:53 51°22.278 2°55.285 14.2 335 4.2 102420 92
2005-03-07 08:21:58 51°22.298 2°55.298 16.7 341 4.2 102420 92
2005-03-07 08:22:03 51°22.314 2°55.31 15.9 336 4.2 102430 92
2005-03-07 08:22:09 51°22.333 2°55.324 15.7 339 4.2 102430 92
2005-03-07 08:22:14 51°22.35 2°55.334 14.6 334 4.2 102420 92
2005-03-07 08:22:18 51°22.363 2°55.344 17.1 335 4.2 102420 92
2005-03-07 08:22:24 51°22.383 2°55.359 15.5 338 4.2 102420 92
2005-03-07 08:22:28 51°22.399 2°55.37 15.8 337 4.2 102420 92
2005-03-07 08:22:34 51°22.417 2°55.383 15.8 335 4.2 102430 92
2005-03-07 08:22:38 51°22.433 2°55.395 18.5 336 4.2 102430 92
2005-03-07 08:22:44 51°22.452 2°55.408 16.4 341 4.2 102420 92
2005-03-07 08:22:48 51°22.464 2°55.417 14.7 339 4.2 102420 92
2005-03-07 08:22:54 51°22.482 2°55.432 14.5 337 4.2 102410 92
2005-03-07 08:22:58 51°22.494 2°55.443 16.6 331 4.2 102410 92
2005-03-07 08:23:04 51°22.514 2°55.457 16 332 4.2 102420 92
2005-03-07 08:23:08 51°22.528 2°55.468 13.8 340 4.2 102420 92
2005-03-07 08:23:13 51°22.543 2°55.48 14.6 338 4.2 102390 92
2005-03-07 08:23:18 51°22.56 2°55.491 13.6 339 4.2 102390 92
2005-03-07 08:23:24 51°22.579 2°55.506 16.6 337 4.2 102430 92
2005-03-07 08:23:28 51°22.593 2°55.516 15.9 338 4.2 102430 92
2005-03-07 08:23:34 51°22.612 2°55.53 16.3 340 4.2 102410 92
2005-03-07 08:23:38 51°22.626 2°55.54 15.5 332 4.2 102410 92
2005-03-07 08:23:44 51°22.643 2°55.555 15.8 336 4.2 102420 92
2005-03-07 08:23:49 51°22.661 2°55.568 16.5 335 4.2 102420 92
2005-03-07 08:23:53 51°22.673 2°55.578 14.8 337 4.2 102410 92
2005-03-07 08:23:58 51°22.691 2°55.59 16.7 335 4.2 102410 92
2005-03-07 08:24:03 51°22.706 2°55.602 15.7 334 4.3 102430 92
2005-03-07 08:24:09 51°22.725 2°55.614 14.4 335 4.3 102430 92
2005-03-07 08:24:14 51°22.74 2°55.627 14.8 340 4.2 102410 92
2005-03-07 08:24:19 51°22.758 2°55.638 16.6 341 4.2 102410 92
2005-03-07 08:24:24 51°22.774 2°55.649 17.3 334 4.3 102430 92
2005-03-07 08:24:28 51°22.789 2°55.661 15.2 340 4.3 102430 92
2005-03-07 08:24:33 51°22.806 2°55.671 14.4 336 4.2 102420 92
2005-03-07 08:24:38 51°22.823 2°55.684 16.8 338 4.2 102420 92
2005-03-07 08:24:43 51°22.84 2°55.695 15.7 339 4.2 102430 92
2005-03-07 08:24:48 51°22.855 2°55.705 15.9 337 4.2 102430 92
2005-03-07 08:24:54 51°22.877 2°55.719 17.3 337 4.3 102410 92
2005-03-07 08:24:59 51°22.893 2°55.729 14.6 329 4.3 102410 92
2005-03-07 08:25:02 51°22.905 2°55.738 14.8 340 4.3 102420 91
2005-03-07 08:25:08 51°22.921 2°55.752 18.6 336 4.3 102420 91
2005-03-07 08:25:14 51°22.943 2°55.767 16.8 341 4.3 102430 91
2005-03-07 08:25:19 51°22.958 2°55.778 16.8 340 4.3 102430 91
2005-03-07 08:25:24 51°22.976 2°55.79 17.3 337 4.3 102400 91
2005-03-07 08:25:29 51°22.99 2°55.801 17 335 4.3 102400 91
2005-03-07 08:25:33 51°23.006 2°55.813 15.1 338 4.2 102420 91
2005-03-07 08:25:38 51°23.023 2°55.825 14.3 332 4.2 102420 91
2005-03-07 08:25:43 51°23.038 2°55.836 15.8 334 4.3 102410 91
2005-03-07 08:25:49 51°23.055 2°55.849 16.3 338 4.3 102410 91
2005-03-07 08:25:53 51°23.069 2°55.858 15.4 337 4.3 102400 91
2005-03-07 08:25:59 51°23.09 2°55.873 15.2 335 4.3 102400 91
2005-03-07 08:26:04 51°23.107 2°55.884 16.6 335 4.3 102420 91
2005-03-07 08:26:08 51°23.122 2°55.894 14.5 337 4.3 102420 91
2005-03-07 08:26:13 51°23.139 2°55.906 15.7 332 4.3 102400 91
2005-03-07 08:26:18 51°23.156 2°55.917 17.2 334 4.3 102400 91
2005-03-07 08:26:23 51°23.173 2°55.93 17.1 337 4.3 102400 91
2005-03-07 08:26:28 51°23.19 2°55.94 16.1 336 4.3 102400 91
2005-03-07 08:26:33 51°23.206 2°55.952 15 334 4.3 102420 91
2005-03-07 08:26:38 51°23.223 2°55.964 16.7 334 4.3 102420 91
2005-03-07 08:26:42 51°23.236 2°55.974 17.6 337 4.3 102400 91
2005-03-07 08:26:49 51°23.259 2°55.99 15.4 330 4.3 102400 91
2005-03-07 08:26:53 51°23.272 2°56 14.2 335 4.3 102410 91
2005-03-07 08:26:58 51°23.286 2°56.011 15.9 337 4.3 102410 91
2005-03-07 08:27:04 51°23.305 2°56.024 15.1 334 4.3 102420 91
2005-03-07 08:27:09 51°23.32 2°56.036 14.9 334 4.3 102420 91
2005-03-07 08:27:14 51°23.339 2°56.048 16.5 334 4.3 102430 91
2005-03-07 08:27:19 51°23.353 2°56.06 14.7 336 4.3 102430 91
2005-03-07 08:27:24 51°23.37 2°56.07 13.8 336 4.3 102410 91
2005-03-07 08:27:28 51°23.383 2°56.08 13.7 336 4.3 102410 91
2005-03-07 08:27:34 51°23.404 2°56.094 16.2 335 4.3 102400 91
2005-03-07 08:27:38 51°23.418 2°56.105 14.1 339 4.3 102400 91
2005-03-07 08:27:44 51°23.436 2°56.118 13.9 338 4.3 102400 91
2005-03-07 08:27:48 51°23.45 2°56.127 16.1 335 4.3 102400 91
2005-03-07 08:27:54 51°23.47 2°56.142 15.6 337 4.3 102420 91
2005-03-07 08:27:58 51°23.484 2°56.152 16.5 331 4.3 102420 91
2005-03-07 08:28:03 51°23.502 2°56.163 15.8 334 4.3 102400 91
2005-03-07 08:28:08 51°23.519 2°56.175 14.4 333 4.3 102400 91
2005-03-07 08:28:13 51°23.536 2°56.186 15 329 4.3 102420 91
2005-03-07 08:28:17 51°23.549 2°56.196 15.6 335 4.3 102420 91
2005-03-07 08:28:24 51°23.571 2°56.211 16 335 4.3 102410 91
2005-03-07 08:28:28 51°23.585 2°56.222 16.6 331 4.3 102410 91
2005-03-07 08:28:32 51°23.599 2°56.23 15.6 335 4.3 102420 91
2005-03-07 08:28:36 51°23.612 2°56.24 15.3 332 4.3 102420 91
2005-03-07 08:28:44 51°23.637 2°56.258 15.5 333 4.3 102420 91
2005-03-07 08:28:48 51°23.651 2°56.268 14.9 337 4.3 102420 91
2005-03-07 08:28:54 51°23.671 2°56.283 16.9 331 4.3 102420 91
2005-03-07 08:28:58 51°23.685 2°56.294 15.5 335 4.3 102420 91
2005-03-07 08:29:04 51°23.703 2°56.306 15.8 336 4.3 102420 91
2005-03-07 08:29:08 51°23.716 2°56.316 16.3 335 4.3 102420 91
2005-03-07 08:29:14 51°23.737 2°56.33 15.2 333 4.3 102420 91
2005-03-07 08:29:18 51°23.75 2°56.34 14.9 338 4.3 102420 91
2005-03-07 08:29:23 51°23.769 2°56.353 15 332 4.3 102400 91
2005-03-07 08:29:28 51°23.786 2°56.366 14 334 4.3 102400 91
2005-03-07 08:29:32 51°23.799 2°56.375 15.2 332 4.3 102400 91
2005-03-07 08:29:39 51°23.82 2°56.391 16.5 332 4.3 102400 91
2005-03-07 08:29:44 51°23.836 2°56.404 15.4 332 4.3 102410 91
2005-03-07 08:29:48 51°23.852 2°56.415 14.3 336 4.3 102410 91
2005-03-07 08:29:53 51°23.867 2°56.426 15.2 331 4.3 102430 91
2005-03-07 08:29:59 51°23.886 2°56.44 15.5 334 4.3 102430 91
2005-03-07 08:30:04 51°23.902 2°56.452 15.7 331 4.3 102420 91
2005-03-07 08:30:09 51°23.919 2°56.464 15.3 330 4.3 102420 91
2005-03-07 08:30:13 51°23.935 2°56.475 15.3 335 4.3 102420 91
2005-03-07 08:30:18 51°23.951 2°56.486 14.5 334 4.3 102420 91
2005-03-07 08:30:24 51°23.968 2°56.5 15.5 331 4.3 102430 91
2005-03-07 08:30:29 51°23.986 2°56.513 14.8 333 4.3 102430 91
2005-03-07 08:30:32 51°23.997 2°56.52 15.5 337 4.3 102410 91
2005-03-07 08:30:39 51°24.018 2°56.535 14.3 342 4.3 102410 91
2005-03-07 08:30:44 51°24.035 2°56.548 15.2 336 4.3 102410 91
2005-03-07 08:30:48 51°24.05 2°56.558 17.4 335 4.3 102410 91
2005-03-07 08:30:54 51°24.069 2°56.571 16.1 337 4.3 102420 91
2005-03-07 08:30:58 51°24.082 2°56.581 16.3 332 4.3 102420 91
2005-03-07 08:31:03 51°24.1 2°56.594 16.4 333 4.3 102400 91
2005-03-07 08:31:09 51°24.119 2°56.607 17.3 334 4.3 102400 91
2005-03-07 08:31:14 51°24.137 2°56.619 16.7 337 4.3 102410 91
2005-03-07 08:31:18 51°24.15 2°56.628 15.7 333 4.3 102410 91
2005-03-07 08:31:23 51°24.166 2°56.64 16.4 334 4.3 102390 91
2005-03-07 08:31:29 51°24.185 2°56.654 16 331 4.3 102390 91
2005-03-07 08:31:34 51°24.201 2°56.666 15.6 333 4.3 102400 90
2005-03-07 08:31:38 51°24.214 2°56.675 15.3 334 4.3 102400 90
2005-03-07 08:31:44 51°24.234 2°56.689 15.9 329 4.3 102400 90
2005-03-07 08:31:48 51°24.25 2°56.701 17.1 334 4.3 102400 90
2005-03-07 08:31:54 51°24.268 2°56.715 17.2 335 4.3 102420 90
2005-03-07 08:31:59 51°24.283 2°56.728 15.9 333 4.3 102420 90
2005-03-07 08:32:04 51°24.301 2°56.74 15.2 335 4.4 102420 90
2005-03-07 08:32:08 51°24.316 2°56.751 15.7 332 4.4 102420 90
2005-03-07 08:32:13 51°24.332 2°56.763 15.9 333 4.4 102420 90
2005-03-07 08:32:19 51°24.348 2°56.777 16.2 333 4.4 102420 90
2005-03-07 08:32:23 51°24.363 2°56.787 15.9 332 4.4 102400 90
2005-03-07 08:32:28 51°24.381 2°56.8 13.9 337 4.4 102400 90
2005-03-07 08:32:33 51°24.398 2°56.812 14.5 337 4.4 102420 90
2005-03-07 08:32:37 51°24.411 2°56.821 15.4 333 4.4 102420 90
2005-03-07 08:32:44 51°24.433 2°56.838 15.3 334 4.4 102390 90
2005-03-07 08:32:48 51°24.447 2°56.847 14.6 332 4.4 102390 90
2005-03-07 08:32:54 51°24.466 2°56.861 15.8 332 4.4 102410 90
2005-03-07 08:32:58 51°24.48 2°56.872 16 332 4.4 102410 90
2005-03-07 08:33:04 51°24.5 2°56.886 15.7 332 4.4 102420 90
2005-03-07 08:33:08 51°24.516 2°56.898 16.3 335 4.4 102420 90
2005-03-07 08:33:13 51°24.533 2°56.911 18.6 334 4.4 102430 90
2005-03-07 08:33:19 51°24.548 2°56.924 15.3 337 4.4 102430 90
2005-03-07 08:33:24 51°24.564 2°56.936 14.2 332 4.4 102400 90
2005-03-07 08:33:28 51°24.578 2°56.947 15.5 334 4.4 102400 90
2005-03-07 08:33:33 51°24.595 2°56.958 15.8 337 4.4 102410 90
2005-03-07 08:33:37 51°24.608 2°56.968 16.3 341 4.4 102410 90
2005-03-07 08:33:44 51°24.63 2°56.982 14.8 335 4.4 102380 90
2005-03-07 08:33:48 51°24.645 2°56.994 15.4 338 4.4 102380 90
2005-03-07 08:33:53 51°24.662 2°57.005 17 334 4.4 102410 91
2005-03-07 08:33:58 51°24.677 2°57.016 13.2 334 4.4 102410 91
2005-03-07 08:34:04 51°24.695 2°57.029 13.9 332 4.3 102390 91
2005-03-07 08:34:08 51°24.711 2°57.04 16.5 336 4.3 102390 91
2005-03-07 08:34:14 51°24.729 2°57.051 16.4 338 4.3 102420 91
2005-03-07 08:34:19 51°24.745 2°57.061 14.4 334 4.3 102420 91
2005-03-07 08:34:24 51°24.763 2°57.074 14.9 337 4.3 102390 91
2005-03-07 08:34:28 51°24.778 2°57.083 14.3 331 4.3 102390 91
2005-03-07 08:34:33 51°24.793 2°57.093 15.3 338 4.3 102420 91
2005-03-07 08:34:39 51°24.814 2°57.107 14.3 332 4.3 102420 91
2005-03-07 08:34:44 51°24.828 2°57.119 13.2 333 4.3 102400 91
2005-03-07 08:34:48 51°24.844 2°57.13 16.4 338 4.3 102400 91
2005-03-07 08:34:53 51°24.861 2°57.141 15.4 335 4.3 102420 91
2005-03-07 08:34:57 51°24.875 2°57.149 15.8 339 4.3 102420 91
2005-03-07 08:35:04 51°24.897 2°57.164 15.8 337 4.3 102400 91
2005-03-07 08:35:08 51°24.913 2°57.174 16.1 338 4.3 102400 91
2005-03-07 08:35:12 51°24.926 2°57.183 16.2 334 4.3 102390 91
2005-03-07 08:35:19 51°24.948 2°57.197 15.2 337 4.3 102390 91
2005-03-07 08:35:24 51°24.964 2°57.208 15.9 337 4.3 102430 91
2005-03-07 08:35:29 51°24.982 2°57.219 15.7 339 4.3 102430 91
2005-03-07 08:35:34 51°25 2°57.231 16.2 335 4.3 102410 91
2005-03-07 08:35:38 51°25.015 2°57.241 12.9 336 4.3 102410 91
2005-03-07 08:35:44 51°25.031 2°57.254 14.2 337 4.3 102390 91
2005-03-07 08:35:49 51°25.047 2°57.267 13.5 333 4.3 102390 91
2005-03-07 08:35:54 51°25.064 2°57.279 13.9 337 4.3 102400 91
2005-03-07 08:35:58 51°25.077 2°57.288 15.9 334 4.3 102400 91
2005-03-07 08:36:04 51°25.096 2°57.302 15.1 336 4.3 102400 91
2005-03-07 08:36:08 51°25.112 2°57.312 16.9 338 4.3 102400 91
2005-03-07 08:36:14 51°25.131 2°57.326 16 341 4.3 102420 91
2005-03-07 08:36:19 51°25.148 2°57.335 15.3 336 4.3 102420 91
2005-03-07 08:36:23 51°25.163 2°57.345 15.5 338 4.3 102430 91
2005-03-07 08:36:28 51°25.18 2°57.356 16.8 340 4.3 102430 91
2005-03-07 08:36:33 51°25.197 2°57.368 17.5 339 4.3 102410 91
2005-03-07 08:36:38 51°25.213 2°57.377 16.1 337 4.3 102410 91
2005-03-07 08:36:42 51°25.229 2°57.388 15 336 4.3 102400 92
2005-03-07 08:36:48 51°25.245 2°57.399 16.3 337 4.3 102400 92
2005-03-07 08:36:54 51°25.267 2°57.414 15.4 334 4.3 102410 91
2005-03-07 08:36:58 51°25.283 2°57.423 15.6 336 4.3 102410 91
2005-03-07 08:37:04 51°25.301 2°57.435 14.9 337 4.3 102410 91
2005-03-07 08:37:08 51°25.315 2°57.444 16.8 338 4.3 102410 91
2005-03-07 08:37:13 51°25.334 2°57.457 15.9 333 4.3 102410 91
2005-03-07 08:37:19 51°25.353 2°57.469 16.3 339 4.3 102410 91
2005-03-07 08:37:24 51°25.37 2°57.48 16.1 336 4.3 102400 91
2005-03-07 08:37:29 51°25.388 2°57.492 16.4 340 4.3 102400 91
2005-03-07 08:37:33 51°25.402 2°57.5 16.2 334 4.3 102410 91
2005-03-07 08:37:38 51°25.42 2°57.512 18.3 336 4.3 102410 91
2005-03-07 08:37:43 51°25.437 2°57.524 17.8 337 4.3 102400 91
2005-03-07 08:37:49 51°25.453 2°57.536 15.3 332 4.3 102400 91
2005-03-07 08:37:54 51°25.47 2°57.548 18 334 4.4 102410 91
2005-03-07 08:37:58 51°25.485 2°57.557 17.8 340 4.4 102410 91
2005-03-07 08:38:03 51°25.501 2°57.57 16.9 337 4.4 102370 91
2005-03-07 08:38:08 51°25.517 2°57.579 16.1 338 4.4 102370 91
2005-03-07 08:38:14 51°25.538 2°57.592 16.6 336 4.4 102390 91
2005-03-07 08:38:19 51°25.554 2°57.602 14.1 337 4.4 102390 91
2005-03-07 08:38:24 51°25.569 2°57.613 15.1 335 4.4 102390 91
2005-03-07 08:38:28 51°25.585 2°57.624 16.7 337 4.4 102390 91
2005-03-07 08:38:34 51°25.603 2°57.635 16.7 333 4.4 102400 91
2005-03-07 08:38:38 51°25.62 2°57.646 15.3 335 4.4 102400 91
2005-03-07 08:38:44 51°25.639 2°57.658 16.3 334 4.4 102410 91
2005-03-07 08:38:49 51°25.654 2°57.668 15.4 336 4.4 102410 91
2005-03-07 08:38:52 51°25.666 2°57.676 15.9 338 4.4 102400 91
2005-03-07 08:38:59 51°25.689 2°57.692 17.6 334 4.4 102400 91
2005-03-07 08:39:04 51°25.705 2°57.703 17.6 332 4.4 102410 91
2005-03-07 08:39:08 51°25.72 2°57.713 16.7 339 4.4 102410 91
2005-03-07 08:39:12 51°25.734 2°57.722 16 337 4.4 102390 91
2005-03-07 08:39:19 51°25.756 2°57.737 18.2 339 4.4 102390 91
2005-03-07 08:39:23 51°25.771 2°57.747 16.7 334 4.4 102430 91
2005-03-07 08:39:28 51°25.788 2°57.758 18.9 331 4.4 102430 91
2005-03-07 08:39:34 51°25.806 2°57.77 17.3 329 4.4 102390 91
2005-03-07 08:39:38 51°25.823 2°57.781 16.1 332 4.4 102390 91
2005-03-07 08:39:44 51°25.842 2°57.793 17.4 334 4.4 102400 91
2005-03-07 08:39:48 51°25.855 2°57.802 16.8 338 4.4 102400 91
2005-03-07 08:39:53 51°25.873 2°57.814 15.4 335 4.4 102400 91
2005-03-07 08:39:59 51°25.893 2°57.827 16.9 334 4.4 102400 91
2005-03-07 08:40:03 51°25.906 2°57.836 17.5 337 4.4 102400 91
2005-03-07 08:40:09 51°25.926 2°57.848 14.1 332 4.4 102400 91
2005-03-07 08:40:13 51°25.939 2°57.857 15.7 335 4.4 102390 91
2005-03-07 08:40:18 51°25.959 2°57.869 16.8 334 4.4 102390 91
2005-03-07 08:40:23 51°25.974 2°57.88 15.5 338 4.4 102410 91
2005-03-07 08:40:29 51°25.992 2°57.891 14.8 330 4.4 102410 91
2005-03-07 08:40:33 51°26.007 2°57.902 13.2 333 4.4 102400 91
2005-03-07 08:40:39 51°26.027 2°57.915 17 337 4.4 102400 91
2005-03-07 08:40:44 51°26.042 2°57.924 14.4 331 4.4 102400 91
2005-03-07 08:40:48 51°26.056 2°57.933 17.6 332 4.4 102400 91
2005-03-07 08:40:52 51°26.071 2°57.943 18.5 332 4.4 102390 91
2005-03-07 08:40:56 51°26.085 2°57.952 15.9 332 4.4 102390 91
2005-03-07 08:41:03 51°26.109 2°57.968 16.4 335 4.4 102400 91
2005-03-07 08:41:09 51°26.128 2°57.979 15.9 334 4.4 102400 91
2005-03-07 08:41:14 51°26.145 2°57.991 17.1 340 4.4 102380 91
2005-03-07 08:41:18 51°26.16 2°58 17.1 330 4.4 102380 91
2005-03-07 08:41:23 51°26.177 2°58.012 17.1 334 4.4 102380 91
2005-03-07 08:41:28 51°26.193 2°58.024 17.4 333 4.4 102380 91
2005-03-07 08:41:34 51°26.212 2°58.036 17.4 332 4.4 102400 91
2005-03-07 08:41:38 51°26.227 2°58.046 15.6 336 4.4 102400 91
2005-03-07 08:41:44 51°26.245 2°58.06 14.7 336 4.4 102380 91
2005-03-07 08:41:48 51°26.259 2°58.068 17.8 330 4.4 102380 91
2005-03-07 08:41:54 51°26.279 2°58.083 16.2 333 4.4 102400 91
2005-03-07 08:41:58 51°26.293 2°58.092 16.7 332 4.4 102400 91
2005-03-07 08:42:03 51°26.312 2°58.104 16.5 332 4.4 102390 91
2005-03-07 08:42:08 51°26.329 2°58.115 17.1 330 4.4 102390 91
2005-03-07 08:42:14 51°26.348 2°58.127 17.3 333 4.4 102400 91
2005-03-07 08:42:19 51°26.365 2°58.138 15.9 329 4.4 102400 91
2005-03-07 08:42:24 51°26.383 2°58.148 16.4 334 4.4 102400 91
2005-03-07 08:42:28 51°26.398 2°58.158 13.6 334 4.4 102400 91
2005-03-07 08:42:33 51°26.414 2°58.169 15.5 336 4.4 102390 91
2005-03-07 08:42:37 51°26.428 2°58.179 16.9 330 4.4 102390 91
2005-03-07 08:42:44 51°26.45 2°58.193 15.5 336 4.4 102390 91
2005-03-07 08:42:48 51°26.466 2°58.202 16.5 330 4.4 102390 91
2005-03-07 08:42:52 51°26.479 2°58.211 16 333 4.4 102380 91
2005-03-07 08:42:59 51°26.501 2°58.226 14.7 334 4.4 102380 91
2005-03-07 08:43:04 51°26.517 2°58.237 15 331 4.4 102390 91
2005-03-07 08:43:08 51°26.532 2°58.247 14.9 334 4.4 102390 91
2005-03-07 08:43:14 51°26.55 2°58.26 15.7 330 4.4 102400 91
2005-03-07 08:43:19 51°26.568 2°58.27 15.9 335 4.4 102400 91
2005-03-07 08:43:23 51°26.583 2°58.28 16.4 330 4.4 102370 91
2005-03-07 08:43:28 51°26.6 2°58.291 17.1 328 4.4 102370 91
2005-03-07 08:43:33 51°26.616 2°58.302 18 332 4.4 102380 90
2005-03-07 08:43:39 51°26.634 2°58.313 14.8 329 4.4 102380 90
2005-03-07 08:43:44 51°26.648 2°58.324 13.9 325 4.4 102400 90
2005-03-07 08:43:48 51°26.663 2°58.334 15.7 328 4.4 102400 90
2005-03-07 08:43:53 51°26.677 2°58.344 16.5 331 4.4 102420 90
2005-03-07 08:43:59 51°26.697 2°58.358 14.7 330 4.4 102420 90
2005-03-07 08:44:04 51°26.713 2°58.37 16.2 329 4.4 102380 90
2005-03-07 08:44:08 51°26.726 2°58.378 15.4 332 4.4 102380 90
2005-03-07 08:44:14 51°26.745 2°58.393 16.9 328 4.4 102390 90
2005-03-07 08:44:18 51°26.758 2°58.402 16.8 327 4.4 102390 90
2005-03-07 08:44:24 51°26.779 2°58.416 16.9 334 4.4 102390 90
2005-03-07 08:44:28 51°26.793 2°58.426 16.1 332 4.4 102390 90
2005-03-07 08:44:33 51°26.809 2°58.436 15.3 334 4.4 102380 90
2005-03-07 08:44:38 51°26.825 2°58.445 14.7 334 4.4 102380 90
2005-03-07 08:44:44 51°26.844 2°58.458 16 335 4.4 102390 90
2005-03-07 08:44:49 51°26.86 2°58.469 15.1 335 4.4 102390 90
2005-03-07 08:44:54 51°26.878 2°58.48 15.7 336 4.4 102380 90
2005-03-07 08:44:58 51°26.893 2°58.49 16.8 334 4.4 102380 90
2005-03-07 08:45:04 51°26.911 2°58.501 16 334 4.4 102390 90
2005-03-07 08:45:09 51°26.927 2°58.512 16 335 4.4 102390 90
2005-03-07 08:45:12 51°26.939 2°58.519 17 332 4.4 102390 90
2005-03-07 08:45:19 51°26.961 2°58.534 18.8 333 4.4 102390 90
2005-03-07 08:45:24 51°26.979 2°58.544 17.1 328 4.4 102410 90
2005-03-07 08:45:28 51°26.993 2°58.554 17.3 329 4.4 102410 90
2005-03-07 08:45:32 51°27.006 2°58.563 16.4 333 4.4 102390 90
2005-03-07 08:45:39 51°27.027 2°58.579 16.2 328 4.4 102390 90
2005-03-07 08:45:44 51°27.044 2°58.592 14.9 331 4.4 102390 90
2005-03-07 08:45:48 51°27.059 2°58.603 16.8 334 4.4 102390 90
2005-03-07 08:45:54 51°27.077 2°58.618 16.3 332 4.4 102380 90
2005-03-07 08:45:59 51°27.094 2°58.631 17.2 334 4.4 102380 90
2005-03-07 08:46:04 51°27.111 2°58.644 18.7 333 4.4 102390 90
2005-03-07 08:46:09 51°27.126 2°58.656 14.8 333 4.4 102390 90
2005-03-07 08:46:12 51°27.138 2°58.666 16.3 328 4.4 102390 90
2005-03-07 08:46:18 51°27.157 2°58.681 17.4 328 4.4 102390 90
2005-03-07 08:46:24 51°27.174 2°58.695 15.4 334 4.4 102390 90
2005-03-07 08:46:28 51°27.19 2°58.707 17.6 325 4.4 102390 90
2005-03-07 08:46:33 51°27.206 2°58.721 17.8 327 4.4 102380 90
2005-03-07 08:46:38 51°27.222 2°58.734 17 332 4.4 102380 90
2005-03-07 08:46:44 51°27.238 2°58.748 15.3 324 4.4 102410 90
2005-03-07 08:46:49 51°27.255 2°58.764 17.4 329 4.4 102410 90
2005-03-07 08:46:53 51°27.267 2°58.775 16.7 327 4.4 102390 90
2005-03-07 08:46:59 51°27.284 2°58.79 14 324 4.4 102390 90
2005-03-07 08:47:04 51°27.298 2°58.803 14.2 323 4.4 102380 90
2005-03-07 08:47:09 51°27.314 2°58.815 15.5 328 4.4 102380 90
2005-03-07 08:47:14 51°27.33 2°58.829 16.1 329 4.4 102400 90
2005-03-07 08:47:18 51°27.344 2°58.839 15.3 326 4.4 102400 90
2005-03-07 08:47:23 51°27.36 2°58.854 15.8 328 4.4 102390 90
2005-03-07 08:47:29 51°27.378 2°58.869 18.7 330 4.4 102390 90
2005-03-07 08:47:32 51°27.388 2°58.877 17.7 325 4.4 102400 90
2005-03-07 08:47:39 51°27.41 2°58.896 14.9 323 4.4 102400 90
2005-03-07 08:47:43 51°27.422 2°58.908 14.3 324 4.4 102390 90
2005-03-07 08:47:48 51°27.436 2°58.925 15.8 324 4.4 102390 90
2005-03-07 08:47:54 51°27.452 2°58.944 15.1 319 4.4 102380 90
2005-03-07 08:47:59 51°27.465 2°58.964 16.5 320 4.4 102380 90
2005-03-07 08:48:04 51°27.479 2°58.984 14.4 325 4.4 102390 90
2005-03-07 08:48:09 51°27.493 2°59.003 16.1 320 4.4 102390 90
2005-03-07 08:48:14 51°27.507 2°59.024 13.7 318 4.4 102390 90
2005-03-07 08:48:19 51°27.521 2°59.045 14.4 317 4.4 102390 90
2005-03-07 08:48:24 51°27.534 2°59.065 14.7 318 4.4 102390 90
2005-03-07 08:48:28 51°27.546 2°59.084 16.6 317 4.4 102390 90
2005-03-07 08:48:32 51°27.557 2°59.102 14.3 321 4.4 102390 90
2005-03-07 08:48:38 51°27.571 2°59.127 13.8 228 4.4 102390 90
2005-03-07 08:48:44 51°27.585 2°59.152 11.6 315 4.4 102400 90
2005-03-07 08:48:48 51°27.597 2°59.175 13 315 4.4 102400 90
2005-03-07 08:48:53 51°27.608 2°59.194 13.1 315 4.4 102410 90
2005-03-07 08:48:57 51°27.618 2°59.216 13.6 317 4.4 102410 90
2005-03-07 08:49:04 51°27.634 2°59.246 12.5 43 4.4 102390 90
2005-03-07 08:49:08 51°27.645 2°59.267 13.8 314 4.4 102390 90
2005-03-07 08:49:13 51°27.656 2°59.288 13 320 4.4 102410 90
2005-03-07 08:49:18 51°27.668 2°59.312 13.5 314 4.4 102410 90
2005-03-07 08:49:23 51°27.681 2°59.338 14.2 316 4.4 102420 90
2005-03-07 08:49:28 51°27.692 2°59.359 13.4 313 4.4 102420 90
2005-03-07 08:49:34 51°27.706 2°59.39 12.9 228 4.4 102400 90
2005-03-07 08:49:38 51°27.716 2°59.409 15.3 312 4.4 102400 90
2005-03-07 08:49:43 51°27.728 2°59.432 13.9 43 4.4 102400 90
2005-03-07 08:49:48 51°27.74 2°59.458 15.7 231 4.4 102400 90
2005-03-07 08:49:52 51°27.749 2°59.478 14 315 4.4 102400 90
2005-03-07 08:49:59 51°27.765 2°59.508 13.2 313 4.4 102400 90
2005-03-07 08:50:04 51°27.777 2°59.532 12.1 230 4.4 102420 90
2005-03-07 08:50:08 51°27.787 2°59.554 16 311 4.4 102420 90
2005-03-07 08:50:13 51°27.8 2°59.578 13.3 314 4.4 102410 90
2005-03-07 08:50:19 51°27.813 2°59.604 13.2 226 4.4 102410 90
2005-03-07 08:50:24 51°27.825 2°59.629 14.8 228 4.4 102400 90
2005-03-07 08:50:28 51°27.836 2°59.649 12.6 313 4.4 102400 90
2005-03-07 08:50:33 51°27.848 2°59.674 15.8 229 4.4 102400 90
2005-03-07 08:50:39 51°27.862 2°59.701 14.6 316 4.4 102400 90
2005-03-07 08:50:44 51°27.873 2°59.724 14.2 43 4.4 102410 90
2005-03-07 08:50:48 51°27.884 2°59.745 14.4 314 4.4 102410 90
2005-03-07 08:50:52 51°27.893 2°59.762 13.5 229 4.4 102410 90
2005-03-07 08:50:58 51°27.909 2°59.791 13.2 314 4.4 102410 90
2005-03-07 08:51:04 51°27.922 2°59.817 13.1 43 4.4 102390 90
2005-03-07 08:51:08 51°27.932 2°59.837 15 312 4.4 102390 90
2005-03-07 08:51:12 51°27.942 2°59.858 14.2 311 4.4 102400 90
2005-03-07 08:51:17 51°27.954 2°59.882 15 229 4.4 102400 90
2005-03-07 08:51:23 51°27.968 2°59.91 14.6 310 4.4 102400 90
2005-03-07 08:51:28 51°27.978 2°59.936 12.7 228 4.4 102400 90
2005-03-07 08:51:32 51°27.988 2°59.954 12.7 42 4.4 102410 90
2005-03-07 08:51:36 51°27.997 2°59.975 14.2 312 4.4 102410 90
2005-03-07 08:51:43 51°28.013 3°0.01 13.5 231 4.4 102400 90